Home > Weather > Minot > Past weeks

Flag for USA Past Weather in Minot, North Dakota, USA — Yesterday and Last 2 Weeks

Now
65 °F

Clear.


Feels Like: 65 °F
Forecast: 63 / 83 °F
Wind: 12 mph from West

Location: Minot International Airport

Current Time: Jul 24, 2016 at 8:00:32 AM

Latest Report: Jul 24, 2016 at 6:54 AM


Visibility: 10 mi

Pressure: 29.92 "Hg

Humidity: 70%

Dew Point: 55 °F

Location of MinotLocation

Past Weather in Minot — Graph

°F

Minot Temperature Yesterday

Maximum temperature yesterday: 85 °F (at 3:54 PM)
Minimum temperature yesterday: 67 °F (at 7:54 AM)
Average temperature yesterday: 74 °F

High & Low Weather Summary for the Past Weeks

 TemperatureHumidityPressure
High98 °F (Jul 20, 3:54 PM)93% (Jul 16, 12:54 PM)30.12 "Hg (Jul 16, 12:54 PM)
Low56 °F (Jul 15, 4:54 AM)27% (Jul 21, 1:54 PM)29.36 "Hg (Jul 12, 4:54 AM)
Average73 °F67%29.83 "Hg
* Reported Jul 9 5:54 AM — Jul 24 5:54 AM, Minot, Weather by CustomWeather, © 2016

Note: Actual official high and low records may vary slightly from our data, if they occured in-between our weather recording intervals... More about our weather records

Advertising

Minot Weather History for the Previous 24 Hours

Scroll right to see more
 ConditionsComfort  
Time TempWeatherWind HumidityBarometerVisibility
5:54 AM
Sun, Jul 24
65 °FClear.15 mph70%29.90 "Hg10 mi
4:54 AM66 °FClear.15 mph68%29.88 "Hg10 mi
3:54 AM66 °FClear.12 mph70%29.88 "Hg10 mi
2:54 AM67 °FClear.14 mph73%29.87 "Hg10 mi
1:54 AM69 °FClear.15 mph68%29.87 "Hg10 mi
12:54 AM69 °FClear.13 mph70%29.86 "Hg10 mi
11:54 PM
Sat, Jul 23
69 °FClear.14 mph70%29.85 "Hg10 mi
10:54 PM71 °FClear.16 mph61%29.83 "Hg10 mi
9:54 PM72 °FSunny.15 mph59%29.80 "Hg10 mi
8:54 PM75 °FSunny.16 mph52%29.78 "Hg10 mi
7:54 PM80 °FSunny.24 mph42%29.76 "Hg10 mi
6:54 PM83 °FSunny.16 mph37%29.74 "Hg10 mi
5:54 PM85 °FSunny.21 mph32%29.73 "Hg10 mi
4:54 PM85 °FSunny.22 mph29%29.73 "Hg10 mi
3:54 PM85 °FSunny.17 mph35%29.73 "Hg10 mi
2:54 PM84 °FPassing clouds.17 mph48%29.72 "Hg10 mi
1:54 PM79 °FPartly sunny.9 mph65%29.75 "Hg10 mi
12:54 PM73 °FOvercast.8 mph79%29.76 "Hg10 mi
11:54 AM71 °FOvercast.6 mph81%29.77 "Hg10 mi
10:54 AM70 °FOvercast.7 mph84%29.76 "Hg10 mi
10:02 AM69 °FThunderstorms. Overcast.6 mph84%29.77 "Hg10 mi
9:54 AM69 °FOvercast.8 mph84%29.74 "Hg10 mi
8:59 AM67 °FThundershowers. Fog.8 mph87%29.78 "Hg2 mi
Weather by CustomWeather, © 2016

See weather overviewHow to use our weather pages